RH
100 100 100 100 99 98 98 100 100 97 95 96 98 98 99 99 100 100 100 99 98 97 95 99 101 98 101 97 99 95 59 33 33 47 43 17 10 12 11 11 13 22 22 21 21 15 13 13 14 16 16 16 16 14 14 16 14 13 18 19 17 17 15 15 16 14 13 12 10 11 11 15 27 38 39 41 44 47 51 59 69 67 63 65 68 74 85 97
100 100 101 99 98 100 100 100 101 100 98 97 99 97 96 99 99 98 96 95 98 99 96 100 99 98 100 95 101 88 55 47 56 65 42 12 15 15 11 12 15 21 21 23 22 16 13 13 14 15 15 15 15 14 13 14 13 15 21 18 15 17 15 15 15 13 13 12 10 12 11 14 27 35 35 42 49 48 53 68 77 77 78 75 75 82 91 99
100 100 100 99 99 101 100 100 100 100 100 99 100 97 97 99 99 98 95 95 99 100 99 99 98 98 97 96 98 80 64 64 56 45 30 19 22 18 14 14 18 24 22 23 21 16 13 12 15 15 15 15 15 13 12 14 14 15 18 16 15 16 15 15 16 12 12 12 12 12 11 18 24 26 32 42 49 47 52 67 75 79 81 78 79 87 95 98
100 101 100 100 100 100 100 100 100 100 100 99 99 98 98 97 98 99 98 100 100 100 100 98 99 96 95 95 83 72 72 59 34 24 26 24 18 16 16 14 20 25 22 21 16 15 14 14 17 16 15 16 16 14 12 15 15 13 14 14 13 15 15 13 14 13 13 13 13 11 11 17 19 24 36 42 46 47 50 55 59 70 79 81 85 92 97 98
100 101 100 100 99 99 99 100 100 100 100 100 100 100 100 99 97 98 100 101 100 101 99 98 98 89 83 74 63 70 66 36 21 24 26 20 11 11 14 15 21 23 24 20 15 16 14 14 17 17 16 15 16 13 12 14 13 13 13 14 13 14 13 10 12 13 13 13 13 12 10 13 19 30 37 38 41 39 39 39 47 65 77 82 88 94 99 99
100 101 100 100 99 100 100 100 101 100 101 100 100 101 100 100 98 99 100 99 101 100 97 97 92 81 72 60 61 69 49 24 21 25 26 18 8 10 13 16 23 25 25 20 16 16 15 15 16 18 17 15 16 13 13 13 12 12 12 14 14 14 13 11 12 13 14 12 11 12 10 11 23 34 35 35 31 24 22 26 47 69 76 81 88 95 100 99
100 100 100 101 100 100 100 100 100 100 101 100 101 101 100 99 99 97 95 97 100 98 98 92 78 71 65 60 69 64 44 32 25 26 28 17 9 13 16 21 26 25 24 21 18 17 18 17 16 20 17 15 17 13 13 13 12 12 11 12 13 14 13 10 11 12 14 13 11 12 11 11 21 31 33 33 23 19 27 35 57 72 76 85 92 99 100 95
101 101 101 100 101 101 101 101 100 100 100 101 101 100 100 100 99 98 98 97 94 94 94 79 62 59 59 63 64 49 39 33 24 28 27 14 13 16 18 26 28 25 24 22 18 17 18 16 18 20 18 17 17 14 15 13 13 12 11 12 12 13 12 11 12 12 13 12 12 12 11 11 16 23 31 32 23 28 43 53 67 73 79 90 94 100 97 91
100 100 100 100 100 100 100 100 100 101 100 101 100 101 101 100 100 98 94 87 79 81 75 59 49 46 58 75 59 33 28 25 24 29 23 15 14 16 22 26 27 28 24 21 18 17 15 15 19 19 18 20 17 16 17 14 14 13 11 12 12 12 11 12 12 12 13 12 13 11 11 11 11 20 27 27 29 40 54 63 71 75 81 87 89 94 92 88
99 100 99 100 101 100 100 99 99 99 99 101 100 101 100 101 98 81 71 66 61 61 52 46 42 34 55 72 48 28 25 22 26 24 19 18 14 18 25 24 28 28 21 19 17 16 16 16 19 18 17 19 17 17 16 13 14 14 13 12 12 12 12 14 13 13 14 13 14 11 10 11 10 15 18 22 35 46 57 67 73 75 79 80 81 84 83 83
100 99 98 98 93 88 87 87 87 87 89 94 98 101 101 99 88 64 51 49 47 47 44 45 36 31 56 58 32 27 24 21 24 19 16 19 16 19 23 21 25 21 16 18 16 15 17 18 19 19 17 17 17 17 15 13 13 14 13 12 12 13 14 14 13 14 13 12 14 12 9 10 10 11 12 21 36 44 56 68 71 72 74 74 74 76 74 74
98 97 95 85 72 67 69 69 70 71 74 78 83 92 98 98 85 63 48 40 40 44 43 44 41 47 62 46 26 24 20 20 22 17 15 15 16 18 17 16 16 13 11 16 17 13 16 20 18 17 18 18 17 16 14 14 13 13 12 11 11 12 13 12 12 14 12 11 13 11 10 10 10 10 13 24 36 42 54 65 68 69 67 68 69 68 66 65
98 93 78 59 50 52 55 55 56 60 63 64 67 73 82 90 86 69 51 39 36 40 41 43 53 68 62 33 21 20 17 21 23 20 16 12 14 14 13 14 13 12 11 13 16 13 14 18 16 17 19 18 17 15 14 14 14 13 12 13 13 13 12 11 14 14 11 12 13 11 12 12 11 11 13 26 38 42 52 59 62 63 60 63 64 61 60 59
93 75 51 38 38 40 41 41 43 48 53 55 55 57 61 71 78 69 52 42 36 38 44 47 59 73 57 27 18 19 20 23 25 25 20 14 13 13 15 15 14 14 13 14 16 17 16 17 18 19 18 18 16 13 14 16 16 15 12 15 18 15 11 11 16 15 10 12 12 9 13 13 11 12 13 27 39 40 47 54 55 56 56 57 59 57 54 53
69 47 35 32 31 28 28 31 34 37 42 45 45 46 48 53 66 64 48 40 36 37 47 56 64 64 46 27 22 23 25 26 26 26 24 19 15 14 15 15 17 16 15 16 17 20 21 17 18 17 16 17 14 15 17 16 17 18 15 16 21 17 13 13 17 17 13 12 11 9 13 13 10 12 13 25 39 38 42 49 50 52 52 54 56 55 50 48
46 32 29 28 24 20 23 26 28 30 33 39 39 42 45 48 58 59 46 39 35 40 56 69 72 59 36 23 23 25 27 26 25 23 24 25 19 15 15 15 17 17 18 21 20 23 21 18 20 20 17 15 14 16 18 18 19 21 21 21 21 18 16 15 15 19 18 14 12 10 12 12 12 14 14 23 37 40 40 45 48 49 50 52 53 52 50 46
37 28 25 22 20 18 20 22 24 25 29 33 38 47 54 54 56 52 45 38 34 42 57 69 73 60 33 19 22 24 25 25 24 23 24 27 23 16 14 15 15 15 19 20 19 21 20 19 22 21 22 25 26 20 16 21 21 23 27 27 26 23 21 19 15 19 22 16 14 14 12 12 12 13 15 20 31 40 40 42 46 47 48 51 51 50 49 47
36 28 24 19 16 16 19 20 20 22 26 31 43 57 57 54 53 49 46 40 41 52 57 63 65 48 25 18 23 23 24 26 25 24 23 27 25 18 16 15 15 16 19 18 17 20 19 21 26 22 24 29 28 19 16 21 21 24 29 26 27 27 24 22 18 20 24 17 15 16 13 14 14 13 16 18 26 38 42 43 45 46 46 48 50 49 47 46
35 28 23 17 14 16 17 18 19 21 25 32 51 68 63 58 59 59 60 52 46 48 45 47 46 33 24 22 24 24 26 25 22 21 22 26 24 19 17 15 17 17 18 19 18 23 24 24 27 22 22 25 26 23 18 20 22 24 29 26 24 23 22 23 19 23 28 18 15 20 17 15 17 14 15 21 28 36 42 45 46 45 45 45 47 48 48 48
32 24 19 15 13 14 16 17 18 20 25 33 51 70 66 62 63 61 63 57 46 39 31 32 35 30 27 27 27 27 26 22 19 18 18 22 21 18 15 15 23 22 21 23 21 30 34 26 25 24 26 31 39 43 35 32 34 32 31 27 24 23 21 21 19 25 32 20 17 30 29 21 21 19 20 28 31 32 38 46 47 45 43 43 44 47 49 50
26 20 16 13 11 13 15 17 19 22 29 38 49 57 53 51 54 51 50 49 46 44 36 33 36 32 28 30 31 29 28 25 22 19 17 18 18 17 15 17 24 21 27 34 30 36 35 24 28 35 39 41 49 58 51 45 45 38 32 26 25 26 22 22 24 29 34 23 21 35 32 22 24 25 29 36 30 24 31 40 43 44 42 42 42 44 47 49
22 18 14 12 13 15 17 19 23 26 33 41 44 45 44 45 47 43 43 45 43 45 45 41 40 37 33 33 32 30 31 28 23 21 19 16 15 16 16 19 21 21 32 37 29 33 31 23 31 43 53 57 61 63 55 50 47 38 32 28 26 26 24 27 31 36 36 24 22 31 26 22 29 32 36 40 32 29 36 38 39 40 41 42 40 42 47 49
20 18 13 15 17 18 20 21 28 32 33 37 40 40 42 46 49 43 43 48 45 43 46 43 40 39 36 33 32 31 31 28 24 22 18 15 15 17 15 16 22 24 27 27 23 26 23 22 37 50 55 57 60 60 53 46 41 35 31 26 28 32 29 25 30 42 44 35 30 30 25 26 35 36 35 39 41 42 45 44 43 41 39 41 40 41 45 48
19 18 15 19 21 21 22 25 35 37 33 36 37 38 40 44 51 47 47 55 55 48 43 38 38 38 34 30 30 31 30 29 27 22 17 14 15 17 15 17 21 20 19 26 29 22 16 24 45 57 53 47 50 55 49 36 31 40 41 29 28 34 30 25 33 44 43 40 41 32 22 24 33 32 27 34 41 41 38 35 36 38 36 38 40 42 45 48
19 18 19 21 22 25 24 29 39 36 33 35 34 38 42 44 48 47 52 61 55 46 40 34 36 35 30 29 31 31 28 27 26 22 17 13 14 16 16 17 17 17 22 28 28 18 18 34 47 49 47 44 42 45 46 36 28 37 43 36 32 31 32 34 39 39 28 29 41 37 21 21 33 31 25 32 35 31 31 29 27 30 32 34 37 39 44 49
19 19 22 21 25 29 28 32 39 35 33 33 32 39 42 42 47 45 54 63 48 36 34 28 28 27 24 26 29 26 23 23 21 20 17 12 13 14 16 19 17 20 27 28 26 23 25 37 45 46 50 50 41 39 47 44 29 28 39 42 38 34 38 40 35 31 23 24 43 45 26 23 30 26 27 37 32 24 27 29 27 27 28 30 32 36 41 46
22 20 22 22 27 32 33 36 39 37 35 32 33 39 38 42 46 42 53 63 48 35 30 24 22 20 19 22 23 22 23 21 17 15 15 14 14 13 16 21 18 19 29 28 24 27 33 36 41 50 55 46 33 32 46 45 26 27 43 44 34 31 39 41 33 29 31 31 40 42 29 26 28 26 33 38 29 22 23 25 27 26 26 27 28 30 34 39
26 22 21 20 24 31 36 41 42 38 34 34 36 37 39 44 45 46 56 56 40 30 25 21 19 15 17 20 19 20 21 20 19 15 14 13 13 14 16 20 18 19 27 25 19 30 42 35 32 44 45 30 22 30 46 43 27 34 50 43 34 36 42 45 34 30 38 34 26 31 31 28 27 28 33 30 22 22 25 26 27 26 27 28 28 29 29 32
27 24 22 21 22 26 33 39 40 36 34 36 37 38 42 45 46 49 51 43 30 24 20 19 17 14 18 19 19 21 19 18 19 16 15 13 11 14 16 18 21 21 25 24 20 29 36 29 27 33 29 21 27 41 45 37 32 41 46 35 31 37 42 43 34 27 36 32 22 32 38 29 25 25 25 25 25 25 27 29 29 28 28 28 30 33 32 32
26 25 24 26 27 29 33 34 32 32 35 37 37 40 42 47 54 50 42 36 29 23 20 17 16 17 20 20 20 21 18 19 20 17 17 15 13 15 15 19 23 24 30 32 25 25 27 31 38 32 23 25 34 42 42 37 39 42 35 24 23 29 34 36 33 28 29 28 26 39 45 32 25 25 26 29 31 31 33 34 31 30 28 28 31 32 32 33
23 23 24 27 31 35 35 30 28 32 36 37 39 44 47 52 58 49 36 33 30 26 22 17 17 18 20 22 21 19 19 21 21 20 18 16 18 18 15 19 24 26 33 33 28 30 28 27 33 30 29 31 27 28 33 33 36 34 27 23 24 28 30 28 29 29 29 29 30 41 49 36 25 26 29 34 35 36 38 37 34 32 29 29 30 29 32 35
20 22 24 26 34 39 36 32 33 36 39 40 42 50 57 56 51 46 41 34 32 32 23 17 19 17 20 24 21 20 21 22 22 21 21 19 22 25 22 25 27 24 28 31 30 33 27 22 24 23 26 29 22 22 26 27 29 29 25 27 29 29 30 28 27 28 29 30 34 44 45 34 26 26 31 36 36 35 38 37 34 33 31 31 30 29 34 38
19 24 29 32 39 41 40 42 40 40 45 44 47 55 58 54 47 53 55 40 31 29 21 20 22 18 22 25 21 23 22 21 22 22 23 22 23 28 28 30 30 23 26 32 31 27 23 26 28 20 20 26 23 20 22 25 28 27 26 29 32 32 34 35 33 31 31 31 38 44 40 30 26 28 32 36 34 33 35 33 31 32 33 33 31 29 32 38
18 23 35 38 40 41 44 45 43 48 49 42 51 55 45 45 52 58 57 42 30 26 21 24 25 21 23 23 24 25 22 22 24 24 26 26 28 31 28 27 27 26 30 33 31 27 23 25 27 21 20 23 22 20 21 24 27 28 26 25 28 30 32 32 28 27 28 31 37 40 35 30 28 30 34 34 32 31 30 29 30 31 31 31 31 31 33 37
24 21 32 37 38 43 46 43 43 50 48 46 57 53 41 47 55 53 46 36 29 27 23 24 24 22 24 26 29 27 21 22 25 28 30 28 31 33 28 27 29 29 30 30 32 33 27 23 24 25 24 22 20 22 22 20 23 28 25 22 26 28 28 33 35 34 32 30 35 36 32 32 32 32 34 33 29 27 27 27 29 30 31 32 34 36 37 39
33 29 35 39 39 43 43 43 46 45 48 55 52 43 50 57 48 40 38 29 24 23 24 27 26 24 25 29 32 29 23 22 24 27 29 29 31 33 32 32 31 27 25 27 35 33 25 25 29 27 24 23 22 22 21 19 20 26 24 22 26 27 31 39 41 44 41 32 32 36 34 32 32 31 30 29 26 24 26 27 27 30 33 34 38 40 41 43
38 41 40 37 36 37 37 45 49 43 51 58 45 42 58 54 36 33 35 27 23 23 27 31 29 25 28 31 31 29 26 23 22 23 24 29 32 33 37 37 30 29 28 28 35 34 27 27 30 26 20 23 26 22 22 23 21 22 22 23 26 25 31 36 34 38 41 34 33 36 35 32 31 31 30 28 26 24 26 26 26 30 32 34 39 42 44 47
40 47 40 30 27 29 37 47 45 47 63 65 59 64 59 40 28 29 28 26 24 25 29 33 30 26 29 30 28 28 27 22 24 25 23 29 32 31 38 39 30 32 33 27 29 34 32 26 28 33 27 25 27 22 21 24 24 23 21 23 27 27 28 31 32 35 35 35 36 36 38 35 28 28 29 27 26 26 28 29 27 28 32 37 41 44 47 52
44 52 46 32 22 23 36 45 43 55 67 59 62 71 53 35 32 27 25 26 25 26 31 32 30 29 31 31 28 29 28 24 26 28 23 25 31 32 37 39 32 32 32 28 29 35 37 31 30 33 31 27 25 23 23 25 24 25 23 24 28 31 32 31 32 32 30 36 39 35 35 32 25 28 31 27 27 28 29 30 30 31 35 40 45 49 52 56
55 58 51 33 21 25 36 42 50 65 64 53 62 64 42 31 31 26 27 28 25 27 33 33 30 30 35 34 29 28 29 28 28 27 26 26 27 31 39 41 37 36 34 33 39 44 40 34 32 30 29 28 26 25 27 26 25 26 25 27 30 31 31 31 33 32 29 34 39 37 35 27 27 37 34 24 27 31 31 32 32 34 37 42 50 55 58 60
65 60 55 35 19 28 38 41 56 75 68 56 59 50 34 30 28 26 31 32 27 24 29 35 34 36 40 35 30 29 29 30 28 27 28 24 23 30 37 43 44 40 36 34 40 48 42 35 35 34 29 27 27 30 31 30 29 28 26 25 28 31 30 28 33 36 31 32 34 36 35 26 32 47 40 31 34 34 32 34 33 35 41 48 55 59 61 64
58 48 47 33 18 28 43 46 58 73 65 50 43 35 35 37 28 23 27 28 28 26 29 36 36 43 46 36 31 32 29 28 28 27 27 24 29 36 37 43 48 44 40 36 41 54 53 43 39 36 31 28 30 34 36 36 33 30 29 29 29 32 31 24 28 36 36 36 34 34 36 29 37 53 50 45 49 43 39 40 36 38 47 53 56 59 62 65
56 47 38 27 20 28 42 46 51 60 57 49 42 33 33 35 29 27 28 28 28 29 34 36 33 36 38 33 32 29 27 30 29 28 30 29 34 41 42 44 47 48 47 42 45 54 54 46 41 37 33 30 30 33 35 36 32 27 29 35 33 33 36 33 35 38 38 39 38 38 40 34 39 55 55 49 49 45 44 45 40 43 52 56 58 61 64 66
71 69 56 33 19 25 37 40 41 50 59 61 54 43 36 32 32 34 33 33 35 36 39 41 34 29 32 36 37 31 29 31 30 30 34 33 35 45 50 45 44 53 54 50 51 46 37 40 44 39 37 33 30 32 31 30 32 30 33 39 37 38 44 44 41 38 36 37 38 39 38 34 40 53 49 42 40 38 40 44 44 49 54 56 59 62 65 67
68 66 65 46 30 37 49 52 51 53 63 69 61 55 49 39 37 40 36 35 37 38 41 40 35 35 39 42 44 43 39 33 32 37 40 40 42 47 50 44 44 53 55 57 60 46 36 46 47 36 38 40 34 33 34 32 33 35 37 38 37 41 45 40 35 34 34 38 39 35 32 32 39 44 39 39 42 39 42 47 47 50 55 57 60 64 66 67
57 50 58 57 49 53 59 62 64 59 60 63 56 54 57 51 45 42 36 34 36 39 41 39 36 39 42 45 50 54 49 42 41 46 47 46 42 41 47 47 47 52 54 56 59 53 48 54 52 41 39 37 30 31 39 42 38 35 36 35 37 47 50 40 34 33 34 38 39 38 38 36 37 37 34 39 43 41 44 49 47 49 54 58 61 65 66 66
63 56 61 62 56 58 61 61 63 62 59 60 56 54 59 58 51 42 35 35 37 40 43 42 40 39 41 49 56 56 55 53 49 52 55 51 43 40 45 46 44 49 52 47 49 55 49 46 56 57 46 39 35 35 41 46 41 36 37 38 39 48 53 43 35 37 39 37 35 42 51 45 36 35 34 36 43 45 47 48 47 52 56 58 62 65 63 61
67 64 68 67 55 54 60 59 62 67 65 63 63 61 60 59 56 50 41 38 40 40 40 42 43 42 44 49 49 50 55 53 51 58 59 51 47 43 36 37 42 44 42 36 42 55 47 39 53 58 47 44 43 40 42 44 43 42 43 44 42 46 52 44 39 44 43 35 30 41 55 51 37 34 33 34 40 42 44 49 53 58 60 60 62 63 60 58
70 73 76 73 62 61 69 70 70 70 66 68 68 63 60 59 56 51 43 45 52 47 42 46 46 43 49 53 50 52 56 49 46 58 60 50 52 51 38 35 40 38 33 33 45 56 45 41 57 57 45 43 40 39 44 44 44 45 44 45 45 46 50 47 44 48 46 40 38 43 55 56 42 32 33 41 48 48 50 58 62 60 60 62 63 61 59 56
79 81 80 77 72 74 79 79 76 69 65 72 70 59 59 59 55 53 46 47 57 54 48 51 49 46 52 55 53 54 58 55 48 51 57 51 50 53 45 37 38 37 33 35 47 51 41 47 64 57 43 41 35 35 42 42 44 44 40 43 47 48 51 50 49 51 48 45 44 48 58 57 43 37 42 54 62 60 57 60 61 59 61 66 65 61 57 53
90 91 88 79 70 73 77 76 76 70 62 69 72 66 63 59 57 58 49 43 51 54 53 55 53 51 52 53 55 53 55 62 57 50 55 49 40 44 44 38 39 39 38 41 46 45 39 47 58 50 42 42 36 33 37 38 43 46 43 45 49 49 51 51 51 51 47 43 43 49 55 48 40 41 46 57 66 62 57 59 61 61 64 66 65 58 52 49
93 92 88 73 60 69 79 74 71 68 63 68 75 71 64 58 57 58 51 45 46 47 52 58 57 52 49 51 57 53 47 53 53 49 52 46 36 39 40 38 39 38 39 45 47 46 43 42 43 44 43 42 39 40 42 41 42 44 46 50 49 46 47 49 49 51 49 44 42 44 44 43 49 48 42 54 68 63 57 58 56 58 63 65 64 57 49 47
Wind_Speed
10 10 9 9 9 8 8 8 8 8 8 8 9 9 9 8 8 8 8 8 7 7 8 8 9 10 10 11 11 13 14 14 13 10 6 9 7 5 7 4 7 10 7 4 6 6 4 3 2 2 4 2 1 0 1 1 1 1 1 1 1 2 2 3 4 2 1 5 8 7 4 5 3 4 2 3 9 11 9 5 4 5 5 6 12 20 23 20
10 10 9 9 9 8 8 8 8 8 8 9 8 8 8 8 8 7 7 7 7 7 7 8 9 10 10 11 11 13 15 15 13 10 8 7 7 6 6 5 8 9 7 5 5 6 4 2 1 2 2 1 1 1 0 0 0 1 2 1 2 3 3 2 3 2 3 7 10 9 5 4 4 5 3 4 10 12 11 6 5 8 8 10 16 22 22 20
10 10 9 9 9 9 9 8 8 9 9 9 8 8 8 8 8 7 7 7 7 7 8 8 9 9 10 11 11 13 14 11 6 4 3 3 5 8 8 8 10 9 6 6 7 6 5 3 3 3 2 1 1 1 1 1 1 1 1 2 2 3 3 3 4 6 6 7 9 8 5 2 3 2 3 6 10 10 11 9 9 10 11 14 17 21 21 20
10 10 10 10 9 9 9 9 8 8 9 9 9 8 8 8 8 7 7 7 7 7 8 9 9 9 10 10 11 12 9 4 0 1 5 6 4 8 12 13 11 8 7 8 9 6 4 4 3 2 1 2 1 1 1 0 1 1 2 3 2 2 4 4 5 7 6 4 4 5 5 1 1 1 4 10 9 5 8 9 8 13 17 17 18 19 20 19
10 10 10 9 9 9 9 9 9 8 9 9 8 8 8 7 7 8 8 7 7 7 8 8 8 9 10 10 10 8 4 0 1 4 7 6 2 11 15 14 11 8 9 10 8 5 3 3 3 3 1 2 1 1 1 1 2 2 2 3 3 2 5 6 3 5 4 2 4 5 5 1 0 2 8 13 9 3 4 5 3 11 19 20 20 19 18 17
10 10 10 9 9 9 9 9 9 9 9 9 9 8 8 8 7 7 7 7 7 7 7 7 8 9 10 10 7 4 2 1 2 5 5 3 7 15 17 14 10 8 10 9 6 3 3 2 2 2 1 1 1 1 1 1 1 3 2 1 4 3 4 5 2 4 1 3 6 4 3 2 1 4 7 7 3 2 2 2 4 10 16 21 22 19 19 18
11 11 11 11 10 10 10 10 10 9 9 9 9 8 8 8 7 7 6 6 6 6 7 6 7 8 9 8 3 1 1 1 4 5 3 5 12 16 16 13 10 10 9 8 5 2 2 2 2 2 1 2 2 1 1 0 1 3 2 2 4 3 6 7 5 4 1 5 7 1 2 3 4 3 5 5 1 3 3 4 10 12 14 18 19 18 18 18
12 11 11 11 10 11 11 10 9 9 9 8 8 8 8 7 7 6 6 6 6 6 6 5 6 7 8 6 1 1 1 2 6 4 2 9 15 16 16 12 10 9 8 7 5 3 2 2 3 2 1 2 2 1 1 1 1 3 3 3 2 3 7 7 5 5 4 6 5 1 2 2 2 1 5 5 1 2 1 8 14 15 15 15 15 16 15 15
12 11 11 11 10 10 10 10 9 9 9 8 8 8 7 7 7 6 6 6 5 5 4 4 5 5 6 3 1 1 1 5 6 2 4 10 16 15 14 10 9 9 8 7 5 4 3 2 2 2 1 2 2 1 1 2 2 4 4 2 4 5 6 5 4 5 4 3 2 1 1 3 1 1 4 2 4 2 6 10 14 16 16 14 13 14 14 15
11 11 11 11 11 10 10 10 9 9 8 8 7 7 7 7 6 6 6 5 4 4 3 4 4 5 4 1 1 1 0 4 4 6 6 8 14 15 12 8 9 10 8 6 5 5 3 2 2 2 2 3 2 1 1 2 1 3 4 4 7 7 4 3 3 3 2 1 1 1 2 3 2 1 1 3 3 3 8 10 12 15 15 15 14 12 12 13
12 11 11 11 10 10 9 9 8 8 8 7 7 7 7 6 5 5 5 4 3 3 3 3 4 4 3 1 0 1 1 3 5 7 6 7 11 13 10 7 10 12 10 5 5 8 4 3 4 1 1 2 1 1 2 2 1 2 3 5 7 4 2 2 2 2 1 1 2 0 2 1 2 1 1 3 1 3 8 10 10 12 12 13 13 11 10 10
12 11 11 10 9 9 9 8 7 7 7 7 7 6 6 6 5 5 4 3 3 3 3 2 3 4 2 0 1 2 1 3 4 6 6 7 7 8 7 6 8 10 10 5 5 11 7 4 4 1 1 1 1 0 2 1 1 2 1 4 6 2 1 3 2 2 2 1 1 1 2 0 1 1 2 3 0 4 8 10 9 9 9 10 10 9 8 8
12 11 10 9 9 8 8 8 7 7 7 7 7 6 6 5 5 5 4 3 2 2 2 2 3 3 1 1 1 2 0 2 2 4 6 7 5 5 5 5 5 7 8 4 1 7 10 6 2 1 1 2 2 1 2 0 1 2 1 2 5 2 2 6 4 2 1 1 2 3 1 0 1 3 3 3 2 8 8 9 8 7 7 8 9 7 8 8
11 10 9 8 8 8 7 7 6 6 7 7 7 6 5 5 4 4 3 3 2 2 1 2 4 2 1 2 1 0 2 3 1 2 5 7 6 5 5 6 6 8 9 5 2 2 7 8 2 1 1 1 2 2 1 1 2 1 0 1 2 0 2 6 4 4 2 1 2 1 2 2 2 4 4 3 2 8 8 9 8 7 7 7 8 8 9 9
10 9 9 8 7 7 6 6 6 6 7 7 7 6 5 5 4 3 3 2 2 1 0 2 4 2 1 1 0 1 3 2 2 1 3 8 8 4 4 6 6 8 10 8 3 2 3 5 3 1 1 1 1 1 2 1 2 2 1 0 1 0 2 4 3 5 3 1 3 1 2 3 2 5 4 2 2 6 7 9 9 9 9 8 8 9 9 8
9 8 8 7 6 6 5 6 6 6 7 7 7 6 4 3 2 2 2 1 1 1 1 1 3 2 0 1 1 1 1 1 4 4 2 8 8 4 4 4 2 4 7 4 2 3 4 3 2 1 1 1 1 0 1 1 1 2 2 0 1 1 1 2 2 5 4 2 3 3 2 2 2 4 4 2 2 5 6 8 9 9 9 9 9 8 8 7
9 8 7 6 6 5 5 5 5 6 7 7 6 5 2 0 0 0 1 1 2 2 1 1 2 2 1 0 1 1 2 3 6 4 3 7 8 6 5 4 2 1 3 3 3 4 1 1 0 1 1 1 0 0 0 0 1 1 1 1 0 1 1 2 1 4 6 3 3 3 2 3 2 3 2 2 2 5 7 8 9 9 8 9 8 8 8 7
9 7 6 5 5 4 4 5 6 7 6 6 5 3 4 3 3 3 2 3 2 1 1 1 1 1 1 1 1 2 6 7 6 3 2 6 9 7 3 3 1 1 3 3 3 2 1 1 0 0 1 1 1 1 0 0 1 2 1 2 1 1 1 2 1 3 7 4 2 1 2 3 3 4 2 3 2 4 6 5 6 7 7 8 8 8 8 8
8 7 5 5 4 4 4 5 6 6 5 4 3 4 5 4 4 3 2 3 1 1 0 0 1 0 1 2 2 6 9 8 5 2 4 6 9 7 3 3 2 2 2 1 1 2 1 0 0 0 0 1 1 0 0 1 1 1 1 2 2 1 1 2 1 3 5 2 1 0 2 3 4 4 2 2 2 4 5 3 4 5 6 7 7 8 7 9
7 6 5 4 3 3 4 4 5 5 5 3 2 3 3 2 2 1 1 2 2 3 2 1 1 1 3 2 3 7 7 4 1 2 5 7 10 9 3 3 2 3 2 1 1 1 1 1 0 1 2 2 1 1 2 3 3 2 2 2 1 1 1 1 1 2 2 1 1 1 2 3 4 5 3 1 2 4 6 5 6 6 7 7 9 10 10 10
6 5 4 3 3 3 3 4 4 4 4 3 2 2 1 0 1 2 2 2 4 4 5 3 1 4 6 4 4 5 3 1 1 1 4 7 9 7 1 3 2 1 1 1 0 0 0 0 1 3 3 1 1 3 4 4 3 2 2 2 1 2 2 0 0 2 2 2 1 1 2 3 3 4 3 1 1 5 7 8 8 9 9 7 9 11 11 8
5 4 2 2 2 2 3 3 3 3 4 5 3 3 2 0 2 3 2 3 4 2 4 3 1 5 7 7 7 2 1 1 0 0 5 7 3 2 1 2 2 1 1 1 1 0 0 1 3 3 3 3 4 4 4 3 3 2 2 2 2 2 2 2 1 2 2 1 1 1 2 3 2 4 4 2 3 3 3 6 7 9 10 9 10 11 9 7
5 3 1 2 2 2 3 2 3 3 4 4 5 4 2 4 5 4 3 1 4 1 1 2 2 4 4 4 5 6 2 1 1 1 5 7 1 1 3 3 2 1 1 1 2 1 0 1 2 2 5 5 4 3 4 4 2 2 2 2 1 1 1 1 1 1 2 1 1 1 2 3 2 1 1 2 3 3 2 2 4 6 9 9 10 9 9 10
5 2 1 1 2 2 2 2 3 3 2 3 5 4 4 7 7 2 4 1 3 2 2 3 2 3 2 1 5 7 1 1 1 1 5 7 3 2 3 3 2 1 1 2 3 3 3 1 4 4 4 3 3 3 4 3 2 1 3 3 2 1 2 2 1 2 1 1 2 2 3 2 1 1 2 1 3 3 2 2 2 4 6 6 6 7 9 11
4 1 1 2 2 2 3 2 3 3 1 2 3 4 7 10 8 2 3 1 1 2 2 2 1 2 2 2 4 4 0 1 2 2 4 6 5 3 1 1 1 1 1 2 3 2 2 1 4 4 2 2 3 3 4 4 2 2 4 7 5 3 3 2 1 1 1 0 3 4 4 1 2 1 1 1 3 2 1 2 2 2 3 4 6 8 9 10
4 1 2 2 3 3 3 2 2 3 1 1 1 6 10 13 8 5 4 2 1 1 2 1 0 1 2 2 3 2 0 0 2 1 2 4 4 3 1 1 1 0 2 3 2 1 1 1 2 3 3 3 3 2 4 5 3 1 3 6 6 4 3 3 2 1 1 2 2 2 4 3 1 1 1 2 5 4 2 1 2 1 1 4 6 8 8 10
5 1 2 2 3 2 1 1 1 2 1 1 4 9 13 12 2 7 2 3 1 1 1 1 1 1 1 1 2 2 1 1 1 2 0 2 1 1 1 2 0 1 2 2 0 0 2 2 2 2 3 3 2 1 3 6 4 1 1 5 7 5 4 4 2 1 1 1 0 1 1 3 4 1 1 2 4 3 3 4 5 2 2 4 6 7 8 10
5 0 1 2 3 2 2 2 1 1 1 2 6 11 13 8 3 5 1 2 1 1 0 1 1 1 1 1 2 1 1 1 1 1 1 1 1 1 0 3 3 3 2 1 2 0 2 3 2 2 1 1 2 1 5 8 3 1 2 4 5 4 3 3 2 2 1 2 2 1 1 3 3 1 1 1 2 2 4 7 9 7 5 5 6 7 9 11
6 2 2 2 3 2 3 3 3 2 1 4 8 12 10 2 3 1 2 2 0 1 0 1 0 0 2 1 2 2 1 1 2 1 2 3 3 2 1 2 4 4 2 1 3 2 2 3 2 3 2 2 2 0 5 7 2 1 5 5 5 5 5 3 2 2 2 2 4 1 1 3 3 1 1 2 2 3 6 7 8 8 9 9 8 7 9 10
7 4 3 2 3 2 2 3 3 1 2 5 9 11 5 2 1 1 1 1 1 0 1 1 1 1 2 2 1 3 1 1 3 2 1 2 3 4 2 1 3 4 1 2 2 2 2 2 1 2 2 1 3 3 1 2 3 4 5 5 5 4 3 2 2 2 1 3 4 1 1 2 4 1 1 1 2 4 6 6 7 9 11 12 11 10 10 9
7 5 4 3 2 2 1 1 1 1 3 7 9 6 1 1 1 2 1 1 0 1 1 1 1 2 4 2 1 3 2 2 4 3 2 1 2 3 1 1 2 1 1 2 1 3 2 1 2 2 1 2 4 4 2 2 4 4 2 3 3 1 1 1 1 1 3 4 1 2 1 3 4 1 2 1 4 4 5 6 8 10 11 12 11 11 11 9
7 5 4 4 3 3 2 0 1 2 5 8 7 2 2 1 0 1 1 1 0 1 1 1 2 2 3 1 3 4 2 2 4 2 2 1 1 1 1 1 0 1 1 1 1 4 3 2 1 3 1 3 2 3 3 2 2 2 2 3 3 1 1 1 1 1 4 3 1 2 1 3 4 3 1 2 4 4 4 5 8 10 11 12 12 12 10 9
5 4 4 3 3 4 3 3 3 4 6 7 4 2 3 1 1 1 1 1 1 1 1 0 1 2 1 1 3 4 1 1 3 2 1 1 1 1 1 1 0 2 2 1 1 3 3 1 1 1 1 1 3 4 2 2 4 5 3 3 4 2 1 2 2 1 3 2 2 1 1 2 2 1 1 2 3 4 5 5 7 8 10 10 10 10 9 9
4 4 4 3 3 4 4 5 5 5 6 4 2 3 3 1 1 1 1 1 1 1 1 1 1 2 2 2 2 3 1 1 3 2 2 1 1 1 1 2 2 1 0 1 0 1 3 2 0 1 0 1 3 4 1 2 3 2 1 2 3 3 2 3 3 3 4 0 2 0 2 2 1 1 2 2 3 4 4 5 6 6 6 7 7 7 9 9
4 3 4 3 3 3 3 4 4 2 2 2 3 3 2 2 2 1 1 1 1 1 1 1 1 2 2 2 1 2 1 1 2 2 2 2 1 1 1 2 3 2 1 1 1 1 2 3 3 2 1 1 2 1 2 3 3 1 1 1 2 3 3 1 1 1 1 0 1 2 2 1 1 2 2 1 2 3 3 4 4 5 6 5 5 8 10 10
5 1 1 1 2 3 3 2 2 2 1 2 3 2 1 2 1 2 1 1 1 1 1 1 2 2 1 1 1 2 2 2 2 2 1 2 1 1 1 1 1 1 0 1 2 1 1 3 2 2 1 1 1 1 1 1 2 2 2 3 1 0 3 3 0 2 1 3 2 1 2 1 1 2 2 1 2 1 2 4 4 7 8 7 8 9 9 10
6 1 2 3 5 5 2 1 3 2 1 3 3 1 2 1 2 2 1 0 0 1 1 0 1 1 0 0 1 2 3 2 2 2 1 0 1 1 2 2 0 1 2 1 2 1 2 3 2 1 2 1 1 1 2 2 0 2 3 4 3 1 2 2 1 2 1 4 2 1 2 3 3 3 4 4 3 1 2 4 5 7 9 9 9 9 9 10
6 0 3 6 10 6 1 2 3 2 2 3 1 1 1 1 1 2 1 1 1 1 1 0 1 1 1 1 1 1 2 2 1 2 1 0 0 1 2 1 1 2 3 2 2 1 2 4 2 0 2 2 2 1 2 3 2 1 1 3 2 2 2 2 1 2 2 3 1 2 2 3 5 3 5 8 6 2 1 3 5 7 8 8 8 9 10 10
4 1 2 8 13 5 3 2 2 2 3 1 1 1 1 1 1 1 1 1 1 1 1 1 0 1 1 1 1 1 1 1 0 0 1 0 0 1 2 1 2 2 3 1 2 1 0 2 2 1 1 3 2 1 2 2 3 2 2 2 0 2 2 2 1 1 3 3 1 2 2 3 4 4 7 10 7 4 2 2 4 5 6 5 6 7 8 8
3 1 2 9 15 2 6 3 2 2 2 1 1 1 1 1 1 1 1 1 0 0 0 1 1 0 1 1 1 1 0 0 2 1 1 0 1 1 2 1 2 4 3 0 1 0 1 1 3 1 1 3 1 0 2 1 2 2 3 3 2 1 0 1 1 1 1 3 2 3 4 3 2 2 7 10 8 5 4 3 3 3 4 3 4 5 5 6
2 1 2 10 15 2 7 3 2 1 1 1 1 1 1 1 1 1 1 0 1 0 0 2 2 1 1 1 1 2 1 1 1 1 1 2 1 0 0 0 2 3 3 1 1 1 0 1 2 2 3 3 1 1 1 1 0 1 2 3 3 3 2 3 3 1 0 2 2 2 3 2 2 1 4 5 5 4 3 2 2 3 2 2 3 4 5 5
1 1 1 12 14 2 5 3 1 1 1 1 0 1 0 1 1 1 2 1 1 1 1 2 2 1 2 1 0 2 2 1 1 1 1 1 1 1 1 1 2 2 1 1 1 0 0 1 1 3 4 4 2 2 2 2 1 1 0 0 1 2 2 5 5 3 2 1 1 1 2 1 2 1 2 1 0 1 1 1 1 3 2 1 3 4 4 5
1 2 2 14 14 2 4 2 1 0 0 1 1 0 0 1 1 0 1 2 2 1 1 1 1 1 1 1 1 2 2 1 2 1 1 1 2 2 1 3 2 2 1 0 0 1 1 1 1 3 3 3 1 1 1 1 2 1 0 1 0 1 0 2 2 1 3 3 3 2 3 2 2 1 1 1 1 2 2 1 2 3 2 1 2 4 4 5
1 2 2 13 13 2 4 1 2 1 1 1 2 1 1 1 1 1 1 2 2 1 1 1 1 0 1 1 1 2 1 1 1 1 0 1 1 1 1 4 3 1 1 1 0 0 1 1 1 2 3 3 2 1 2 1 1 1 0 1 1 0 2 1 1 1 3 3 4 4 5 2 3 2 2 1 1 3 3 2 3 3 3 2 2 3 3 4
1 1 3 9 14 6 3 0 1 2 0 1 2 2 2 1 2 2 1 1 2 0 1 1 0 1 1 1 1 2 2 0 0 0 1 1 1 1 1 3 3 2 1 1 0 1 2 1 1 3 5 5 5 3 1 0 0 1 0 0 1 1 2 2 1 2 3 2 3 5 4 0 3 2 2 2 1 3 3 3 3 3 2 2 1 2 3 3
1 1 2 4 8 6 2 1 1 1 1 1 1 1 1 1 1 2 1 2 1 1 1 1 0 1 1 2 1 1 2 2 1 1 1 1 1 1 2 2 2 2 3 3 2 1 1 1 2 4 6 6 5 3 0 1 2 3 2 2 1 1 1 1 1 3 3 2 3 3 2 2 4 6 5 3 3 4 4 5 5 4 3 2 1 1 2 2
1 1 2 2 2 3 2 2 3 2 0 1 1 1 1 1 2 2 2 2 1 1 2 1 1 1 1 1 2 1 1 2 1 1 1 0 1 2 2 1 1 5 6 3 2 1 1 1 1 3 5 5 4 3 1 1 4 5 4 4 3 2 2 3 4 3 3 2 5 3 3 4 4 6 7 5 5 5 6 7 6 4 3 2 1 1 0 1
2 1 1 1 1 1 1 3 4 3 3 2 1 1 1 1 2 1 1 2 2 2 1 1 2 3 1 1 2 2 1 1 1 0 1 0 2 2 2 1 1 5 5 2 1 1 1 2 2 2 4 3 3 4 2 2 4 4 5 6 6 4 5 6 6 4 6 6 7 4 7 8 4 5 8 7 8 9 8 6 4 3 3 3 3 3 1 1
2 1 1 1 1 1 1 2 2 2 4 4 2 2 2 2 2 1 1 2 2 3 2 0 1 3 2 1 0 1 1 1 0 1 2 1 1 1 1 1 0 2 3 2 2 1 1 2 2 3 3 4 4 5 3 4 4 5 7 9 7 6 7 7 6 3 6 9 4 3 8 9 5 5 5 3 4 5 4 3 2 2 3 4 4 4 2 1
1 1 2 1 1 1 1 2 1 1 2 3 2 2 2 1 2 2 2 2 2 3 3 1 1 2 2 2 2 2 2 1 2 1 1 2 0 1 1 0 1 1 3 1 1 1 1 1 2 2 3 5 5 5 5 6 7 9 10 7 5 5 6 7 6 3 4 6 4 4 8 8 5 4 3 1 2 2 3 3 3 2 2 3 4 4 3 2
3 1 1 1 1 3 2 2 1 1 1 2 2 2 2 2 2 1 1 3 2 2 3 2 2 1 1 3 4 2 2 2 4 4 2 2 0 0 1 0 1 1 2 1 0 1 1 1 1 1 5 5 4 7 8 6 7 12 11 6 6 8 6 4 4 4 6 7 6 6 8 7 4 4 3 2 3 4 4 3 2 1 1 3 4 3 2 1
5 1 2 1 0 3 2 1 1 1 1 2 2 2 2 2 2 1 1 2 2 3 2 3 1 0 1 3 3 3 5 5 7 6 4 3 1 1 1 1 1 2 1 0 0 0 1 2 1 1 4 4 3 4 4 4 7 10 6 5 9 11 8 6 4 5 7 8 6 5 5 3 2 2 5 6 5 4 2 1 1 1 2 3 4 4 3 2
Wind_Direction
335 333 333 331 326 325 320 317 314 314 318 315 315 316 316 318 318 320 323 322 320 322 321 321 321 324 325 323 327 326 323 322 318 314 275 264 281 244 236 240 175 169 162 143 133 127 111 108 112 135 151 129 359 344 36 7 125 181 129 146 197 190 216 198 195 199 292 318 305 315 351 287 273 113 113 123 125 126 124 86 68 81 67 118 130 141 148 148
337 335 336 333 326 324 323 321 318 317 316 312 312 314 315 315 319 324 326 324 319 319 323 324 323 323 323 326 330 325 325 325 313 293 273 271 271 238 221 200 165 166 164 151 132 118 118 103 99 120 121 129 6 3 123 13 216 147 110 205 217 200 223 203 208 232 259 298 305 310 331 274 232 129 152 153 136 140 134 113 95 100 107 127 136 145 149 148
337 336 335 332 329 329 327 324 321 317 314 311 310 311 311 312 316 320 320 321 317 320 324 324 323 322 325 330 327 324 326 323 308 276 304 332 258 222 198 170 154 158 155 141 128 109 108 121 142 129 89 91 45 359 130 70 207 164 159 234 233 213 254 235 222 245 254 281 296 305 327 294 224 153 173 153 144 159 156 146 139 138 142 146 149 148 150 148
336 335 334 334 334 333 329 324 321 318 315 310 307 306 307 310 313 313 315 316 315 320 321 321 323 325 329 328 324 327 326 315 296 346 343 342 269 198 178 164 153 156 140 122 118 103 93 104 107 91 96 109 34 309 150 143 170 158 197 235 233 172 264 253 222 248 256 255 268 301 315 261 214 210 161 148 152 187 187 180 164 157 156 154 155 152 151 148
336 335 334 336 334 333 329 325 322 319 315 309 305 304 304 308 308 309 311 311 314 317 317 318 323 329 329 327 329 327 318 61 129 310 341 355 191 164 159 156 154 159 142 123 110 101 87 83 78 68 86 120 102 182 148 153 139 175 209 239 235 180 264 274 244 247 247 242 259 297 311 304 16 177 163 164 172 181 186 212 190 156 158 157 158 155 152 150
335 333 331 331 330 328 326 323 320 317 313 307 304 304 303 305 303 304 304 306 311 311 314 320 327 331 331 332 336 334 320 72 295 308 349 49 142 146 148 150 149 151 146 130 104 101 93 73 77 85 73 105 145 177 145 167 181 226 227 244 245 212 253 276 259 240 205 289 282 293 322 317 240 176 166 180 181 22 337 226 144 153 161 157 156 155 157 160
332 331 328 327 325 323 322 321 319 316 313 309 307 305 303 303 301 302 302 305 305 307 315 322 330 332 338 344 348 7 8 282 299 318 9 135 148 144 146 145 144 144 145 138 108 99 109 91 105 119 102 98 162 208 120 150 201 236 249 263 256 206 231 255 254 265 286 270 275 288 309 263 224 182 163 188 196 352 309 156 134 147 160 157 157 159 161 162
330 330 327 325 324 323 321 320 321 320 317 314 314 308 303 300 298 301 301 303 298 304 316 317 330 340 349 358 346 20 87 308 320 331 86 153 155 150 150 143 144 148 146 155 145 143 142 119 132 146 99 73 162 200 134 186 178 204 237 255 256 210 235 256 266 281 275 256 266 262 295 263 222 214 166 185 308 355 143 139 134 144 157 160 163 160 156 157
329 326 323 323 323 321 317 318 320 318 316 317 318 315 309 303 299 298 293 296 296 305 316 315 331 349 357 353 260 59 130 325 337 67 119 159 163 158 157 152 154 156 152 167 166 155 165 165 151 175 162 89 176 227 151 214 199 196 225 237 250 264 266 284 294 281 272 264 266 202 41 40 20 253 162 124 10 72 130 135 137 145 159 165 166 161 157 159
327 323 322 320 317 316 315 316 318 317 316 316 320 322 317 310 303 295 289 291 296 301 306 317 340 353 351 311 228 78 71 346 26 117 125 162 167 162 169 173 170 169 163 167 167 161 185 190 150 167 150 107 182 238 145 200 119 181 226 251 257 278 301 302 291 278 278 356 317 209 70 11 324 247 157 55 36 134 128 135 145 148 159 167 167 167 165 163
326 323 320 318 316 317 317 319 321 321 320 318 320 324 321 316 307 297 287 286 287 292 305 324 345 352 352 304 34 86 98 24 67 113 130 155 167 171 181 188 183 181 168 158 188 193 204 168 147 142 136 126 191 195 185 209 82 198 248 270 271 286 296 281 276 290 314 56 333 282 93 336 308 10 13 23 12 156 133 141 155 152 154 163 165 165 167 166
326 322 320 320 319 320 324 328 329 326 324 322 320 320 318 315 313 307 291 281 272 274 300 328 342 344 354 245 218 168 123 40 75 109 134 152 166 178 184 185 184 185 170 152 204 207 207 169 143 54 82 162 272 46 169 196 232 235 293 290 299 336 73 355 3 322 345 48 308 221 146 148 268 353 348 340 218 146 134 144 157 158 153 156 160 162 169 169
325 323 323 321 322 327 334 336 336 331 326 326 323 318 313 308 307 305 291 275 260 264 297 340 346 345 342 257 204 178 98 11 64 120 149 165 169 174 177 185 191 197 188 162 162 211 216 208 150 32 165 188 278 353 144 95 266 250 38 324 314 339 40 17 3 307 25 66 293 223 218 257 261 325 351 337 169 145 135 147 159 160 153 156 163 168 173 177
326 325 322 322 330 338 338 339 340 331 325 327 326 320 308 300 302 297 287 274 257 267 318 1 359 8 308 264 160 78 332 338 336 172 178 179 179 185 191 201 204 210 214 216 338 321 224 212 164 98 197 211 282 308 276 352 6 306 334 50 348 301 12 16 356 333 67 112 321 241 278 298 289 336 4 353 191 160 147 155 164 164 165 166 171 178 183 190
326 322 319 325 337 339 339 343 341 331 328 328 327 325 307 295 300 290 278 271 257 276 6 11 2 2 288 301 113 330 319 335 340 292 217 196 188 192 205 209 211 215 222 232 258 48 133 174 146 92 247 250 293 308 290 342 36 3 312 157 354 30 2 2 15 23 53 57 346 359 283 299 333 351 6 15 212 183 161 163 170 173 173 173 178 189 191 193
324 318 320 327 332 335 344 344 336 333 335 335 334 333 317 291 295 278 253 238 175 108 100 36 12 5 182 45 45 341 308 332 345 339 239 206 199 169 145 162 180 212 212 221 207 146 111 115 100 16 354 107 156 96 26 54 63 4 9 100 328 22 30 356 63 52 30 357 5 20 277 274 15 358 5 43 207 197 176 173 177 179 177 181 188 193 194 192
322 318 321 322 325 333 342 335 334 342 341 343 347 351 358 280 200 172 188 177 149 116 109 162 7 343 260 15 30 359 300 318 342 342 217 204 196 160 119 113 86 103 143 115 121 149 108 43 34 14 51 72 127 186 334 325 108 69 36 85 330 332 15 345 24 32 11 14 35 28 277 261 331 336 343 96 169 199 190 186 185 185 186 190 194 197 199 197
320 319 318 312 318 326 330 329 342 352 346 349 9 44 72 95 95 87 120 118 122 117 100 190 299 301 252 331 4 314 303 309 328 328 196 183 183 172 118 99 80 36 92 87 83 95 15 346 317 71 73 29 48 60 34 296 117 149 150 124 126 228 237 317 314 12 8 16 58 28 269 275 302 301 264 131 143 203 204 199 196 195 194 196 201 206 206 206
320 319 315 309 315 320 322 335 352 355 343 357 54 103 90 84 83 83 118 113 112 296 6 230 268 305 289 281 291 310 309 310 312 252 156 157 166 162 109 87 66 37 87 91 47 35 356 78 58 95 319 343 54 58 103 162 156 138 134 133 133 165 237 281 281 14 359 357 101 58 285 300 299 288 258 119 107 185 196 198 207 205 201 204 212 216 217 222
321 316 315 313 315 319 330 349 356 350 347 9 123 132 82 49 45 38 162 165 216 251 273 222 171 261 289 282 311 326 322 322 340 155 151 153 150 139 85 33 44 43 75 141 75 31 343 114 132 227 246 273 221 184 107 121 124 104 121 150 141 205 240 266 255 35 352 256 125 86 289 289 286 287 273 3 65 177 188 193 202 206 209 208 212 218 221 227
322 317 317 317 319 328 346 360 357 358 17 50 137 136 91 94 20 341 313 274 236 225 247 245 181 263 273 272 299 341 359 351 40 117 154 154 150 150 70 11 81 72 50 210 213 358 356 100 232 231 229 241 155 146 120 112 113 114 159 172 168 222 240 338 317 10 355 250 157 117 275 266 268 290 287 310 213 194 190 195 200 202 208 214 216 221 224 224
328 327 322 328 343 356 1 9 19 35 55 70 96 111 133 93 330 273 262 307 280 220 231 254 269 269 268 267 261 230 57 4 75 319 159 148 140 184 147 54 134 145 66 195 232 26 40 254 257 231 171 105 88 126 134 119 124 129 159 196 197 212 274 287 232 345 354 265 175 134 284 285 274 284 283 269 235 218 194 205 213 203 202 211 215 221 226 223
336 342 347 357 28 32 9 36 65 66 74 82 97 106 99 8 348 244 198 310 293 276 184 221 221 243 270 274 219 171 143 169 146 295 173 159 110 188 148 102 116 115 118 185 185 181 291 200 189 149 147 129 92 122 137 119 133 158 165 211 218 133 278 245 178 342 8 25 354 245 277 293 297 272 253 285 283 298 322 243 233 220 213 214 216 222 222 218
346 4 73 40 81 59 40 89 80 63 81 113 112 75 3 351 355 214 179 348 294 293 241 209 211 214 243 290 168 162 155 172 188 280 166 157 113 133 152 125 135 143 191 174 148 196 252 154 125 122 147 150 122 143 164 160 171 200 196 216 222 181 224 249 320 320 339 99 36 317 268 264 11 42 141 69 310 290 320 314 253 232 233 237 245 244 230 223
355 33 104 91 117 72 57 97 70 52 78 142 123 12 352 343 341 193 172 18 260 296 278 196 227 211 186 104 152 174 345 190 232 248 176 166 138 139 140 114 169 193 169 145 138 207 280 150 143 138 137 153 152 176 199 190 185 217 217 214 207 186 194 214 298 309 253 117 45 359 284 239 50 327 171 32 328 280 238 265 248 233 242 242 245 243 236 235
359 66 122 119 133 86 59 100 59 38 12 186 347 349 347 339 336 166 164 16 110 332 330 192 287 184 165 124 157 184 62 186 259 277 188 179 144 128 134 121 353 15 157 163 169 227 10 86 149 143 130 149 175 215 211 188 173 209 215 191 176 157 153 162 185 220 324 328 39 3 286 275 317 301 92 348 310 296 269 280 67 71 241 230 237 240 236 235
356 81 143 152 157 125 45 160 25 21 168 264 334 344 341 338 358 158 163 20 99 306 320 289 325 147 196 218 153 165 176 352 42 79 127 195 150 45 137 182 186 99 162 177 334 129 148 121 75 87 112 143 203 257 196 180 170 177 160 150 152 153 159 159 160 161 358 310 310 42 323 277 281 292 42 290 282 301 335 354 10 7 267 251 250 251 251 245
349 357 183 197 194 216 238 203 279 256 211 323 337 338 336 342 134 157 79 64 125 306 345 305 316 141 301 341 72 82 272 337 55 65 2 99 105 17 117 195 182 148 151 216 280 347 164 186 179 161 146 215 242 232 168 178 187 358 110 126 136 133 133 137 130 117 69 283 250 107 79 267 268 268 356 335 311 337 355 343 333 331 321 290 270 266 267 266
337 300 238 236 227 233 231 227 243 234 264 337 339 334 334 10 139 133 64 114 223 3 117 307 338 133 341 22 56 13 306 351 34 318 357 77 74 45 111 171 145 129 91 278 261 256 216 237 204 172 207 242 243 93 171 179 181 123 133 106 86 79 73 80 101 111 94 274 260 237 73 271 271 259 340 13 22 335 333 328 319 325 327 318 311 301 283 277
324 297 253 246 238 235 249 247 235 217 353 341 337 334 342 114 113 59 105 200 309 9 249 318 327 317 4 66 38 359 351 350 358 337 359 72 40 44 91 147 111 120 81 357 276 272 296 273 214 201 225 186 113 80 131 152 115 143 148 105 85 72 57 62 51 77 153 244 258 343 67 251 273 273 109 335 328 310 304 306 313 324 329 325 322 319 308 294
316 293 248 240 239 225 239 221 171 40 357 339 338 344 52 89 49 101 143 249 300 340 356 359 325 360 28 67 41 8 11 358 350 353 26 34 16 43 94 187 102 111 7 11 288 309 328 178 197 264 228 134 118 92 55 66 115 152 164 119 120 80 65 100 63 104 231 247 279 17 13 215 246 243 109 319 305 292 279 287 307 316 319 318 319 324 323 311
310 281 250 238 239 229 228 249 343 351 339 338 344 18 104 353 285 140 294 316 48 347 45 328 318 24 21 29 37 5 348 12 8 20 35 7 24 40 339 245 203 252 298 345 323 330 308 202 253 302 200 163 162 112 87 91 152 191 166 142 199 234 111 227 247 194 239 254 47 16 304 217 240 268 340 326 312 308 296 293 304 308 309 313 321 327 328 326
309 265 261 243 256 267 282 293 294 316 329 337 353 65 80 73 194 191 293 4 56 16 84 7 350 36 3 34 28 349 344 35 355 9 38 341 60 47 324 46 13 273 280 281 351 336 301 265 35 273 185 160 205 191 171 173 188 200 178 165 214 212 153 229 222 248 262 258 58 14 272 244 246 268 332 327 337 336 326 318 312 311 312 313 320 330 339 345
317 230 253 266 300 309 302 286 276 297 326 346 55 73 74 137 213 212 258 283 317 351 52 31 353 37 49 54 360 324 36 57 345 354 6 5 61 49 28 45 30 19 150 177 183 321 294 291 141 200 62 52 233 230 176 117 155 195 163 156 202 195 207 247 229 242 261 123 79 191 216 226 225 45 8 347 351 342 338 331 317 318 319 309 316 347 1 2
337 224 253 272 316 334 315 274 258 266 334 34 67 73 115 195 240 193 207 281 283 302 12 40 45 60 44 21 338 348 30 43 12 9 12 27 42 32 25 8 14 51 134 195 188 156 274 270 272 297 343 104 269 282 84 115 143 112 46 160 203 199 178 240 296 273 279 144 131 197 226 256 293 334 333 342 350 343 338 329 325 341 342 333 352 13 15 12
349 284 295 298 339 337 311 260 215 185 129 75 70 89 173 215 223 169 168 281 286 281 316 18 57 79 46 323 346 20 10 5 17 12 32 48 19 354 338 312 351 65 60 237 205 175 232 260 288 321 286 138 289 250 117 269 192 134 180 190 177 104 125 130 145 64 21 243 199 176 218 207 213 225 174 146 330 330 336 340 1 6 359 9 19 15 14 14
343 328 66 39 5 345 315 217 175 169 94 85 98 166 216 204 190 190 187 252 211 88 83 16 37 57 167 265 313 342 353 2 10 4 16 86 20 7 341 305 252 3 339 279 229 225 248 262 306 295 238 56 316 204 78 21 25 147 189 169 131 94 92 123 199 95 138 239 216 170 214 195 193 187 159 182 228 233 11 2 20 17 10 15 14 6 8 13
340 186 97 24 355 338 336 129 155 133 69 76 105 207 215 150 181 215 185 158 181 99 96 160 41 16 209 181 239 293 338 344 356 6 352 183 93 37 11 323 260 3 344 268 212 105 247 267 309 249 248 342 354 220 112 66 33 351 170 132 134 217 199 165 193 170 204 234 214 182 207 220 217 189 163 186 198 170 49 18 28 27 19 9 359 359 5 8
360 115 132 7 351 322 200 161 137 78 65 100 146 187 205 185 199 227 195 181 173 122 123 207 96 34 181 170 190 215 307 327 133 61 294 211 93 55 44 338 266 336 346 250 192 98 203 271 289 151 273 322 352 227 220 142 82 63 123 119 39 269 230 192 183 200 219 224 207 196 203 214 216 182 169 184 191 180 148 73 52 38 25 9 353 353 360 6
21 26 190 1 358 324 175 141 98 60 72 160 185 181 189 196 214 241 220 192 153 126 183 184 165 132 184 197 227 191 98 186 164 160 257 199 117 65 37 342 282 323 335 247 156 296 111 236 268 299 324 280 249 183 259 198 126 144 170 173 167 126 356 227 171 86 232 208 179 202 221 207 174 170 176 177 178 178 164 128 101 65 36 19 2 352 357 8
22 20 203 355 359 162 159 83 62 60 91 144 182 207 181 109 175 318 327 39 68 338 126 144 159 156 162 191 230 185 144 129 170 177 209 202 194 190 71 233 260 302 321 37 85 26 104 184 249 299 301 272 259 38 305 249 207 236 215 205 178 152 167 207 204 170 224 229 184 189 231 214 127 159 185 167 162 166 167 173 131 85 46 11 5 357 359 7
44 19 248 353 356 166 148 53 50 72 114 163 129 217 245 55 107 336 331 7 51 63 56 98 143 149 159 165 162 173 162 148 181 203 217 201 130 128 169 274 250 247 280 21 50 52 145 153 228 267 275 282 320 348 297 257 173 158 249 233 163 161 185 215 223 196 160 189 121 139 249 233 122 161 189 166 158 158 156 244 148 103 82 19 6 1 6 14
66 285 299 357 355 171 138 32 225 106 26 252 339 282 282 25 115 118 341 8 28 50 35 59 147 157 185 190 143 169 192 198 173 166 248 174 123 142 283 325 292 203 177 34 102 141 177 181 250 267 281 303 335 28 324 272 162 166 58 58 183 258 247 236 244 168 178 178 146 182 241 199 141 109 126 144 228 168 150 181 152 131 121 75 19 2 8 16
10 261 276 358 2 147 162 302 199 156 352 319 17 29 3 26 58 29 15 11 9 68 91 60 107 93 81 87 98 137 181 220 171 73 355 161 136 151 324 335 334 102 109 267 162 213 251 218 233 269 291 291 259 192 202 200 165 233 328 55 274 106 95 121 115 144 212 196 167 218 244 182 132 98 87 94 142 144 132 139 149 141 134 113 48 8 5 12
348 261 244 356 17 61 140 266 152 137 93 76 54 27 4 43 47 9 25 47 13 34 120 74 94 70 66 83 91 87 64 6 118 58 146 164 304 283 348 352 354 17 345 307 211 227 243 199 197 243 261 254 243 245 243 158 9 294 265 231 254 105 141 185 161 188 222 201 173 222 254 182 129 160 143 89 118 161 143 144 158 150 138 126 70 14 4 14
15 28 294 337 19 46 83 30 55 112 123 109 80 35 21 49 3 345 35 81 22 28 65 43 23 62 63 82 110 103 54 31 51 115 155 185 261 275 327 358 2 333 339 17 48 117 174 224 223 233 250 253 254 263 349 30 286 275 277 251 202 125 217 166 160 210 205 189 200 215 266 261 189 192 190 155 173 198 175 163 169 165 155 144 113 16 356 4
83 56 358 328 353 22 56 37 26 29 85 117 92 41 7 336 327 346 47 68 28 38 61 42 34 56 155 136 131 143 75 40 43 112 144 233 264 275 314 346 359 334 344 14 23 69 123 262 223 213 248 257 267 268 165 156 266 264 269 257 221 194 191 182 213 201 130 205 242 193 189 230 207 200 207 192 190 207 199 187 180 168 159 153 161 215 282 10
44 134 359 312 316 4 19 5 15 33 38 48 95 59 19 12 11 8 17 18 15 18 29 70 48 41 54 170 147 150 153 102 36 325 181 263 303 300 345 69 35 340 347 8 351 35 177 252 202 184 248 244 239 260 233 220 258 252 250 255 246 224 204 208 224 179 156 225 253 178 185 215 208 207 219 207 194 198 196 189 172 155 163 162 173 194 198 181
42 82 321 326 68 105 299 327 354 55 42 32 41 48 47 45 43 30 336 349 11 12 13 93 41 30 41 37 133 138 143 176 296 299 195 174 349 319 341 75 153 341 2 27 13 51 209 254 170 179 261 258 240 251 226 218 251 252 240 241 241 239 229 231 242 199 196 238 262 162 209 226 214 214 230 217 190 187 175 165 174 176 168 163 175 188 191 200
38 40 329 354 57 48 340 350 18 77 30 16 31 50 63 59 35 28 10 10 360 353 5 43 33 31 67 56 66 104 72 344 311 326 183 179 203 222 237 224 168 346 8 36 49 59 241 266 118 156 266 267 254 257 233 214 234 250 247 238 230 238 240 243 248 222 226 255 251 202 231 243 236 233 251 42 111 155 169 184 191 182 157 165 184 195 199 213
13 276 323 15 7 356 354 7 30 55 28 22 24 26 50 49 15 3 51 35 30 20 355 318 329 11 91 69 60 57 24 307 275 284 249 208 238 214 238 322 186 301 352 40 77 39 228 240 101 193 265 258 234 250 252 239 246 251 246 231 230 230 219 220 224 197 207 232 227 216 234 249 241 226 222 183 164 179 195 194 176 168 186 189 195 204 213 244
2 309 7 20 280 6 3 359 21 49 82 28 3 360 45 38 353 274 141 74 63 61 7 286 259 78 68 61 49 353 320 284 266 274 269 255 285 268 234 181 193 263 312 61 310 347 201 241 202 214 264 258 204 237 281 294 273 261 237 214 235 235 224 224 223 204 211 220 221 225 239 275 300 221 209 198 182 172 162 126 134 186 194 203 215 229 241 264